Jefferson City, MO

6:47 AM CDT on May 26, 2017 (GMT -0500)
Jefferson City Memorial

Weather History for KJEF - January, 2013

Change the Weather History Date:

Tuesday, January 22, 2013

  Actual Average Record
Temperature  
Mean Temperature 21 °F -  
Max Temperature 25 °F 42 °F 76 °F (1967)
Min Temperature 17 °F 20 °F -15 °F (1930)
Degree Days  
Heating Degree Days 44    
Moisture  
Dew Point 0 °F    
Average Humidity 42    
Maximum Humidity 52    
Minimum Humidity 36    
Precipitation  
Precipitation 0.00 in - - ()
Sea Level Pressure  
Sea Level Pressure 30.39 in    
Wind  
Wind Speed 5 mph (ENE)    
Max Wind Speed 8 mph    
Max Gust Speed -    
Visibility 10 miles    
Events      
Averages and records for this station are not official NWS values.
T = Trace of Precipitation, MM = Missing Value Source: NWS Daily Summary

Daily Weather History Graph

Daily Weather History Graph

Search for Another Location

Airport or City:

Trip Planner

Search our weather history database for the weather conditions in past years. The results will help you decide how hot, cold, wet, or windy it might be!

Date:

Astronomy

Jan. 22, 2013 Rise Set
Actual Time 7:21 AM CST 5:19 PM CST
Civil Twilight 6:52 AM CST 5:48 PM CST
Nautical Twilight 6:20 AM CST 6:20 PM CST
Astronomical Twilight 5:49 AM CST 6:52 PM CST
Moon 1:43 PM CST (1/22) 3:42 AM CST (1/22)
Length of Visible Light 10h 55m
Length of Day
9h 58m
Waxing Gibbous, 83% of the Moon is Illuminated
Jan 22
Waxing Gibbous
Jan 26
Full
Feb 3
Last Quarter
Feb 10
New
Feb 17
First Quarter

Hourly Weather History & Observations

Time (CST) Temp. Windchill Dew Point Humidity Pressure Visibility Wind Dir Wind Speed Gust Speed Precip Events Conditions
12:53 AM 18.0 °F 9.8 °F -4.0 °F 38% 30.39 in 10.0 mi North 5.8 mph - N/A   Overcast
1:53 AM 18.0 °F 11.1 °F -4.0 °F 38% 30.39 in 10.0 mi NNW 4.6 mph - N/A   Overcast
2:53 AM 18.0 °F 12.7 °F -2.9 °F 40% 30.40 in 10.0 mi North 3.5 mph - N/A   Overcast
3:53 AM 18.0 °F 11.1 °F -2.0 °F 41% 30.42 in 10.0 mi NNW 4.6 mph - N/A   Overcast
4:53 AM 18.0 °F 12.7 °F -2.0 °F 41% 30.40 in 10.0 mi NNE 3.5 mph - N/A   Overcast
6:53 AM 18.0 °F 12.7 °F -0.9 °F 44% 30.41 in 10.0 mi East 3.5 mph - N/A   Overcast
7:53 AM 17.1 °F 11.7 °F 1.0 °F 50% 30.43 in 10.0 mi East 3.5 mph - N/A   Mostly Cloudy
8:53 AM 18.0 °F 11.1 °F 1.0 °F 48% 30.44 in 10.0 mi East 4.6 mph - N/A   Clear
9:53 AM 19.0 °F 13.9 °F -0.0 °F 43% 30.46 in 10.0 mi East 3.5 mph - N/A   Overcast
10:53 AM 19.9 °F 14.9 °F -0.0 °F 42% 30.46 in 10.0 mi East 3.5 mph - N/A   Overcast
11:53 AM 21.0 °F - 1.0 °F 42% 30.45 in 10.0 mi Calm Calm - N/A   Overcast
12:53 PM 21.9 °F 14.5 °F 1.0 °F 40% 30.40 in 10.0 mi East 5.8 mph - N/A   Overcast
1:53 PM 23.0 °F 17.0 °F 1.0 °F 39% 30.37 in 10.0 mi SSE 4.6 mph - N/A   Mostly Cloudy
2:53 PM 25.0 °F 18.1 °F 1.9 °F 37% 30.37 in 10.0 mi East 5.8 mph - N/A   Overcast
3:53 PM 25.0 °F 20.7 °F 1.0 °F 36% 30.35 in 10.0 mi East 3.5 mph - N/A   Overcast
4:53 PM 25.0 °F 17.1 °F 1.9 °F 37% 30.33 in 10.0 mi ENE 6.9 mph - N/A   Clear
5:53 PM 23.0 °F 13.9 °F 1.0 °F 39% 30.34 in 10.0 mi NE 8.1 mph - N/A   Clear
6:53 PM 21.9 °F 13.4 °F 1.0 °F 40% 30.34 in 10.0 mi NE 6.9 mph - N/A   Partly Cloudy
7:53 PM 21.0 °F 14.6 °F 1.9 °F 44% 30.33 in 10.0 mi East 4.6 mph - N/A   Clear
8:53 PM 19.9 °F 14.9 °F 1.9 °F 46% 30.34 in 10.0 mi ESE 3.5 mph - N/A   Clear
9:53 PM 19.0 °F 12.3 °F 3.0 °F 50% 30.35 in 10.0 mi East 4.6 mph - N/A   Clear
10:53 PM 19.0 °F 12.3 °F 1.9 °F 47% 30.35 in 10.0 mi ESE 4.6 mph - N/A   Clear
11:53 PM 18.0 °F 11.1 °F 3.0 °F 52% 30.35 in 10.0 mi East 4.6 mph - N/A   Clear